カタログに戻る

FENGYUN 1C DEB

運用中SSO
NORAD 29912·DEBRIS·🇨🇳 China

打ち上げ May 10, 1999 から Taiyuan Satellite Launch Center

Loading…

次のパス (今後24時間)

TLE

最新Source: Space-Track

元期: Sep 13, 2026, 20:50 UTC

1 29912U 99025HJ  26256.86834208  .00003355  00000-0  94555-3 0  9995
2 29912  98.7432   7.0179 0040970 117.7655   8.4725 14.45970812 20104

AllMySatでFENGYUN 1C DEBをリアルタイム追跡

Download on the App Store